Regional Weather Roundup
Issued by NWS

Home | Current Version | Previous Version | Text Only | Print | Product List | Glossary Off
Versions: 1 2 3 4 5 6 7 8 9 10 11 12 13 14 15 16 17 18 19 20 21 22 23 24 25 26 27

000
ASUS45 KTFX 210810
RWRMT
MONTANA REGIONAL WEATHER ROUNDUP
NATIONAL WEATHER SERVICE GREAT FALLS MT
100 AM MST WED FEB 21 2018

NOTE: "FAIR" INDICATES FEW OR NO CLOUDS BELOW 12000 FEET WITH NO
SIGNIFICANT WEATHER AND/OR OBSTRUCTIONS TO VISIBILITY.

MTZ001>007-043-210900-
WEST OF THE DIVIDE

CITY           SKY/WX    TMP DP  RH WIND       PRES   REMARKS
KALISPELL      FAIR      -4  -6  91 W3        30.19S
MISSOULA       CLOUDY     7   0  73 SE3       30.18R
BUTTE          MOCLDY   -13 -19  75 CALM      30.00R
MULLAN PASS    FAIR      -2  -5  87 S3        29.91S
ANACONDA         N/A     -4  -9  77 SW5       30.04S
DEER LODGE       N/A     -6 -11  77 CALM      30.09R
HAMILTON         N/A      9   1  72 MISG      30.14S
PLAINS           N/A     -5 -18  53 CALM      30.23R
RONAN            N/A      1  -4  78 CALM      30.20S
$$

MTZ008-052>055-210900-
SOUTHWEST MONTANA

CITY           SKY/WX    TMP DP  RH WIND       PRES   REMARKS
BOZEMAN        FAIR     -11 -17  75 CALM      30.09R
DILLON         MOCLDY    -9  -9 100 S7        30.01R WCI -24
ENNIS          CLOUDY     9  -2  61 S16G23    30.06R WCI  -9
W YELLOWSTONE  LGT SNOW  -8 -13  77 NE5       29.98R
THREE FORKS      N/A     -8 -15  71 CALM      30.08R
TWIN BRIDGES     N/A     -5 -16  59 CALM      30.02S
$$

MTZ009-010-012-014-046-048-049-054-210900-
EAST SLOPES AND CENTRAL MONTANA

CITY           SKY/WX    TMP DP  RH WIND       PRES   REMARKS
CUT BANK       FAIR      -2  -7  79 S3        30.08S
GREAT FALLS    CLOUDY    -4 -11  72 SW8       30.11S WCI -19
HELENA         MOCLDY    -4  -9  79 CALM      30.14S
AUGUSTA        MOCLDY     0  -7  71 CALM      30.04S
CHOTEAU          N/A     -4  -9  77 CALM      30.10S
RAYNESFORD     MOCLDY    -6 -14  70 CALM      30.10S
WHITE SULPHUR    N/A    -13 -18  77 CALM      30.03R
$$

MTZ011-013-016-021-045-047-050-051-210900-
NORTH CENTRAL MONTANA

CITY           SKY/WX    TMP DP  RH WIND       PRES   REMARKS
HAVRE          MOCLDY   -12 -17  78 SW10      30.22R WCI -31
LEWISTOWN      MOCLDY   -10 -15  78 SE9       30.09S WCI -27
N BAR RANCH    FAIR      -8 -18  59 W9        30.10S WCI -25
CHINOOK          N/A    -17 -20  83 CALM      30.25R
GEYSER         MOCLDY    -1 -12  59 SW6       30.08F WCI -13
STANFORD       MOCLDY    -5 -13  68 CALM      30.05S
$$

MTZ017>020-022>027-061-062-210900-
NORTHEAST MONTANA

CITY           SKY/WX    TMP DP  RH WIND       PRES   REMARKS
GLASGOW        FAIR     -10 -15  78 W5        30.24R
GLENDIVE       FAIR     -14 -20  74 S8        30.26  WCI -31
JORDAN           N/A    -11 -19  68 CALM      30.22R
MALTA          CLEAR    -24 -29  76 W10       30.24S WCI -46
SIDNEY         FAIR     -11 -17  75 SW10      30.28R WCI -30
WOLF POINT     FAIR     -13 -20  71 W7        30.28R WCI -29
PLENTYWOOD       N/A     -8 -15  71 CALM      30.19S
SCOBEY           N/A    -10 -21  58 CALM      30.15R
$$

MTZ028>42-056>058-210900-
SOUTHCENTRAL AND SOUTHEAST MONTANA

CITY           SKY/WX    TMP DP  RH WIND       PRES   REMARKS
BAKER          FAIR      -8 -14  74 W7        30.23S WCI -23
BILLINGS       FAIR       0  -9  65 SW20      30.15S WCI -22
LIVINGSTON     FAIR      -6 -12  75 N15       30.05S WCI -27
MILES CITY     FAIR     -14 -17  87 SE8       30.27R WCI -31
BIG TIMBER     CLEAR     -6 -11  77 S3        30.10S
EKALAKA          N/A     -1 -15  51 SW12      30.14R WCI -18
FORSYTH          N/A     -9 -13  84 CALM      30.26R
$$

REGIONAL REPORTS...DAKOTAS

CITY           SKY/WX    TMP DP  RH WIND       PRES   REMARKS
WILLISTON      FAIR     -12 -16  82 SW6       30.25S WCI -26
MINOT          FAIR       0 -10  63 SW15      30.22R WCI -19
DICKINSON      FAIR     -10 -18  67 W12       30.21S WCI -30
BEACH          FAIR      -4 -11  71 W14       30.25S WCI -24
CROSBY         FAIR      -8 -15  71 SW10      30.21R WCI -26
TIOGA          FAIR      -8 -13  77 W12       30.20S WCI -27
WATFORD CITY   FAIR      -9 -17  70 SW8       30.25R WCI -26
BISMARCK       FAIR      -4 -11  72 SW8       30.33R WCI -19
GRAND FORKS    FAIR       2  -5  72 W9        30.28R WCI -13
FARGO          FAIR       0  -7  72 SW14      30.35R WCI -19
BUFFALO SD       N/A     -3 -12  65 SW6       30.15  WCI -15
RAPID CITY     FAIR      -8 -13  78 E5        30.28R
$$

REGIONAL REPORTS...WYOMING/IDAHO/WASHINGTON

CITY           SKY/WX    TMP DP  RH WIND       PRES   REMARKS
GILLETTE         N/A     -3 -15  56 S13       30.16R WCI -22
SHERIDAN       FAIR     -15 -21  74 CALM      30.16S
BUFFALO WY     FAIR      -1 -13  56 SW6       30.09F WCI -13
CODY           FAIR     -10 -15  78 NW3       30.07F
YELLOWSTONE LA   N/A    -24 -29  77 NW3       29.96R
IDAHO FALLS    FAIR      10   4  76 SW5       30.12F
SALMON         FAIR      10   4  76 CALM      30.11R
BOISE          MOCLDY    24   5  44 SE8       30.15F WCI  15
SPOKANE        FAIR      12   7  80 NE3       30.23R
$$

REGIONAL REPORTS...ALBERTA

CITY           SKY/WX    TMP DP  RH WIND       PRES   REMARKS
$$

REGIONAL REPORTS...SASKATCHEWAN

CITY           SKY/WX    TMP DP  RH WIND       PRES   REMARKS
$$




USA.gov is the U.S. government's official web portal to all federal, state and local government web resources and services.